Weather in Luzhki

Russia / Ryazan Oblast     54°39′56″N   39°20′03″E
temp.,
°C
wind,
m/s
gust,
m/s
humid.,
%
clouds,
%
prec.,
mm/h
press.,
hPa
HPBL,
m
26 october, tue
tue2600:00−1sw512740 0.0 1029268
03:00−1sw6147436 0.0 1028333
06:000wsw61478100 0.0 1026326
09:00+1wsw61471100 0.0 1025417
12:00+5wsw71456100 0.0 1024589
15:00+6wsw71454100 0.0 1023677
18:00+4sw71562100 0.0 1023490
21:00+4sw71664100 0.0 1022483
27 october, wed
wed2700:00+3sw71566100 0.0 1021453
03:00+3sw61465100 0.0 1020423
06:00+3sw61466100 0.0 1018402
09:00+4sw71665100 0.0 1017505
12:00+7sw81558100 0.0 1015734
15:00+7wsw81361100 0.0 1013946
18:00+5wsw81381100 0.3 1014740
21:00+5w7128516 0.3 1014666
28 october, thu
thu2800:00+6wsw61285100 0.0 1014456
03:00+6wsw61185100 0.0 1014456
06:00+5sw51189100 0.0 1013318
09:00+5ssw51190100 0.4 1011383
12:00+7sw61293100 0.7 1010548
15:00+7wsw61393100 1.5 1011588
18:00+8w61494100 0.3 1012574
21:00+9wnw6129034 0.6 1014626
29 october, fri
fri2900:00+8nw61188100 0.1 1016664
03:00+6n5986100 0.1 1020647
06:00+4nne488939 0.0 1024396
09:00+3ne468338 0.0 1027449
12:00+4ne33545 0.0 1030560
15:00+4e22475 0.0 1030511
18:00+2sse33605 0.0 103137
21:00+1s366522 0.0 1032111
30 october, sat
sat3000:00+3ssw4107059 0.0 1032250
03:00+3sw511865 0.0 1031218
06:00+3sw512915 0.0 1031227
09:00+5sw512865 0.0 1031293
12:00+10wsw610665 0.0 1031456
15:00+11sw6106490 0.0 1030513
18:00+7sw5127823 0.0 1030271
21:00+6sw6147980 0.0 1030304